BEIDOU-3 M17 (C36)

Last updated on Aug. 8, 2020, 5:33 a.m. UTC

1 43706U 18093A   20220.10024885  .00000011  00000-0  00000-0 0  9997
2 43706  54.6214 255.2307 0011638 260.6145 152.0992  1.86231813 11677
UTC
Height (km)
Latitude
Longitude
Inclination
Orbital Period
UTC large
Height (km)
Speed (km/s)
/
Latitude / Longitude
Inclination (degrees)
Orbital Period (minutes)
Azimuth
Elevation
Range (km)
Doppler Factor
iOS Compass Heading
iOS Angle

Next 30 passes for location: Hong Kong

Rise time Rise Azimuth (degrees) Set time Set Azimuth (degrees) Duration Max altitude (degrees)

No matching passes for this satellites